Location: Góry Miechowskie
(50.3599°N, 20.1803°E)
Time: 15:19:11
(UTC+00:00)

AQUA - Pass Details

Date: 26 September 2024
Orbit: 691 x 694 km, 98.3° (Epoch: 09 October)

Event Time Altitude Azimuth Distance (km) Brightness Sun altitude
Rises 00:23:21 0° 25° (NNE) 3,079 8.1 -35.5°
Reaches altitude 10° 00:26:02 10° 39° (NE) 2,157 7.1 -35.2°
Enters shadow 00:28:43 22° 72° (ENE) 1,518 5.9 -35.0°
